This demonstration page uses our WeatherBlox Daily Observations layout. Learn more.

Left ArrowRight Arrow

Hourly Observations for September 9, 2015

Temp ( °F °C ) Dew Point ( °F °C ) Humidity (%) Winds ( mph kmh ) Pressure ( in mb ) Visibility ( mi km ) Precip ( " mm )
12:59 am 00:59 Mostly Clear 77 25 74 23.3 90 90 S 5 7 30.01 1016 10 16 0.00 0.00
1:59 am 01:59 Clear 77 25 74 23.3 90 90 S 5 7 30.01 1016 10 16 0.00 0.00
2:59 am 02:59 Mostly Clear 77 25 74 23.3 90 90 S 6 9 29.99 1016 8 13 0.00 0.00
3:59 am 03:59 Mostly Cloudy 77 25 74 23.3 90 90 SSW 8 13 29.98 1015 7 11 0.00 0.00
4:59 am 04:59 Mostly Cloudy 77 25 74 23.3 90 90 SSW 5 7 29.98 1015 8 13 0.00 0.00
5:59 am 05:59 Mostly Cloudy 77 25 74 23.3 90 90 SW 6 9 29.99 1016 8 13 0.00 0.00
6:59 am 06:59 Cloudy with Mist and Fog 77 25 73 22.8 88 88 WSW 7 11 29.99 1016 6 10 0.00 0.00
7:59 am 07:59 Mostly Cloudy 77 25 74 23.3 90 90 SW 5 7 30.01 1016 7 11 0.00 0.00
8:59 am 08:59 Mostly Cloudy 79 26.1 73 22.8 82 82 WSW 7 11 30.01 1016 7 11 0.00 0.00
9:08 am 09:08 Mostly Cloudy 79 26.1 74 23.3 85 85 WSW 6 9 30.00 1016 7 11 0.00 0.00
9:59 am 09:59 Partly Cloudy 81 27.2 74 23.3 79 79 WSW 5 7 30.01 1016 8 13 0.00 0.00
10:59 am 10:59 Partly Cloudy 84 28.9 75 23.9 74 74 SSW 6 9 30.00 1016 8 13 0.00 0.00
11:59 am 11:59 Mostly Sunny 86 30 74 23.3 67 67 SSW 5 7 29.99 1016 9 14 0.00 0.00
12:59 pm 12:59 Partly Cloudy 88 31.1 73 22.8 61 61 SW 6 9 29.96 1015 10 16 0.00 0.00
1:59 pm 13:59 Partly Cloudy 89 31.7 72 22.2 57 57 SW 9 15 29.94 1014 10 16 0.00 0.00
2:59 pm 14:59 Partly Cloudy 88 31.1 72 22.2 59 59 VRB 7 11 29.92 1013 10 16 0.00 0.00
3:59 pm 15:59 Partly Cloudy 89 31.7 75 23.9 63 63 ESE 7 11 29.89 1012 9 14 0.00 0.00
4:59 pm 16:59 Partly Cloudy 90 32.2 71 21.7 54 54 S 9 15 29.88 1012 10 16 0.00 0.00
5:59 pm 17:59 Partly Cloudy 89 31.7 73 22.8 59 59 S 13 20 29.87 1011 9 14 0.00 0.00
6:59 pm 18:59 Mostly Cloudy 86 30 71 21.7 61 61 S 10 17 29.86 1011 10 16 0.00 0.00
7:59 pm 19:59 Mostly Cloudy 82 27.8 73 22.8 74 74 SSW 7 11 29.88 1012 10 16 0.00 0.00
8:59 pm 20:59 Partly Cloudy 81 27.2 70 21.1 69 69 SSW 9 15 29.89 1012 10 16 0.00 0.00
9:59 pm 21:59 Partly Cloudy 79 26.1 72 22.2 79 79 S 8 13 29.89 1012 10 16 0.00 0.00
10:59 pm 22:59 Partly Cloudy 78 25.6 72 22.2 82 82 S 8 13 29.90 1012 10 16 0.00 0.00
11:59 pm 23:59 Mostly Cloudy 77 25 73 22.8 88 88 SSW 6 9 29.90 1013 9 14 0.00 0.00

Powered by AerisWeather